Time,TemperatureF,DewpointF,PressureIn,WindDirection,WindDirectionDegrees,WindSpeedMPH,WindSpeedGustMPH,Humidity,HourlyPrecipIn,Conditions,Clouds,dailyrainin,SolarRadiationWatts/m^2,SoftwareType,DateUTC
2013-04-02 00:03:00,50.0,33.0,-100.00,NNE,13,6.0,12.0,52,0.00,,,0.00,0.000000,,2013-04-02 04:03:00,
2013-04-02 00:33:00,48.0,34.0,-100.00,North,354,4.0,10.0,57,0.00,,,0.00,0.000000,,2013-04-02 04:33:00,
2013-04-02 00:43:00,48.0,34.0,-100.00,North,354,4.0,10.0,57,0.00,,,0.00,0.000000,,2013-04-02 04:43:00,
2013-04-02 00:53:00,48.0,34.0,-100.00,North,354,4.0,10.0,57,0.00,,,0.00,0.000000,,2013-04-02 04:53:00,
2013-04-02 01:02:00,48.0,34.0,-100.00,North,354,4.0,10.0,57,0.00,,,0.00,0.000000,,2013-04-02 05:02:00,
2013-04-02 01:32:00,47.0,33.0,-100.00,North,358,6.0,13.0,58,0.00,,,0.00,0.000000,,2013-04-02 05:32:00,
2013-04-02 01:43:00,47.0,33.0,-100.00,North,358,6.0,13.0,58,0.00,,,0.00,0.000000,,2013-04-02 05:43:00,
2013-04-02 01:52:00,47.0,33.0,-100.00,North,358,6.0,13.0,58,0.00,,,0.00,0.000000,,2013-04-02 05:52:00,
2013-04-02 02:02:00,47.0,33.0,-100.00,North,358,6.0,13.0,58,0.00,,,0.00,0.000000,,2013-04-02 06:02:00,
2013-04-02 02:32:00,44.0,33.0,-100.00,North,1,7.0,14.0,64,0.00,,,0.00,0.000000,,2013-04-02 06:32:00,
2013-04-02 02:42:00,44.0,33.0,-100.00,North,1,7.0,14.0,64,0.00,,,0.00,0.000000,,2013-04-02 06:42:00,
2013-04-02 02:52:00,44.0,33.0,-100.00,North,1,7.0,14.0,64,0.00,,,0.00,0.000000,,2013-04-02 06:52:00,
2013-04-02 03:02:00,44.0,33.0,-100.00,North,1,7.0,14.0,64,0.00,,,0.00,0.000000,,2013-04-02 07:02:00,
2013-04-02 04:32:00,40.0,27.0,-100.00,NNE,14,6.0,12.0,59,-99.99,,,0.00,0.000000,,2013-04-02 08:32:00,
2013-04-02 04:43:00,40.0,27.0,-100.00,NNE,14,6.0,12.0,59,-99.99,,,0.00,0.000000,,2013-04-02 08:43:00,
2013-04-02 04:52:00,40.0,27.0,-100.00,NNE,14,6.0,12.0,59,-99.99,,,0.00,0.000000,,2013-04-02 08:52:00,
2013-04-02 05:02:00,40.0,27.0,-100.00,NNE,14,6.0,12.0,59,-99.99,,,0.00,0.000000,,2013-04-02 09:02:00,
2013-04-02 05:33:00,38.0,25.0,-100.00,North,0,6.0,12.0,60,0.00,,,0.00,0.000000,,2013-04-02 09:33:00,
2013-04-02 05:43:00,38.0,25.0,-100.00,North,0,6.0,12.0,60,0.00,,,0.00,0.000000,,2013-04-02 09:43:00,
2013-04-02 05:53:00,38.0,25.0,-100.00,North,0,6.0,12.0,60,0.00,,,0.00,0.000000,,2013-04-02 09:53:00,
2013-04-02 06:03:00,38.0,25.0,-100.00,North,0,6.0,12.0,60,0.00,,,0.00,0.000000,,2013-04-02 10:03:00,
2013-04-02 06:33:00,37.0,23.0,-100.00,NNE,12,6.0,12.0,57,0.00,,,0.00,0.000000,,2013-04-02 10:33:00,
2013-04-02 06:43:00,37.0,23.0,-100.00,NNE,12,6.0,12.0,57,0.00,,,0.00,0.000000,,2013-04-02 10:43:00,
2013-04-02 06:53:00,37.0,23.0,-100.00,NNE,12,6.0,12.0,57,0.00,,,0.00,0.000000,,2013-04-02 10:53:00,
2013-04-02 07:02:00,37.0,23.0,-100.00,NNE,12,6.0,12.0,57,0.00,,,0.00,0.000000,,2013-04-02 11:02:00,
2013-04-02 07:33:00,36.0,22.0,-100.00,North,8,5.0,11.0,56,0.00,,,0.00,0.000000,,2013-04-02 11:33:00,
2013-04-02 07:43:00,36.0,22.0,-100.00,North,8,5.0,11.0,56,0.00,,,0.00,0.000000,,2013-04-02 11:43:00,
2013-04-02 07:53:00,36.0,22.0,-100.00,North,8,5.0,11.0,56,0.00,,,0.00,0.000000,,2013-04-02 11:53:00,
2013-04-02 08:02:00,36.0,22.0,-100.00,North,8,5.0,11.0,56,0.00,,,0.00,0.000000,,2013-04-02 12:02:00,
2013-04-02 09:33:00,40.0,23.0,-100.00,North,9,5.0,10.0,51,-99.99,,,0.00,221.000000,,2013-04-02 13:33:00,
2013-04-02 09:42:00,40.0,23.0,-100.00,North,9,5.0,10.0,51,-99.99,,,0.00,221.000000,,2013-04-02 13:42:00,
2013-04-02 09:52:00,40.0,23.0,-100.00,North,9,5.0,10.0,51,-99.99,,,0.00,221.000000,,2013-04-02 13:52:00,
2013-04-02 10:02:00,40.0,23.0,-100.00,North,9,5.0,10.0,51,-99.99,,,0.00,221.000000,,2013-04-02 14:02:00,
2013-04-02 10:33:00,39.0,23.0,-100.00,North,359,5.0,11.0,53,0.00,,,0.00,275.000000,,2013-04-02 14:33:00,
2013-04-02 10:43:00,39.0,23.0,-100.00,North,359,5.0,11.0,53,0.00,,,0.00,275.000000,,2013-04-02 14:43:00,
2013-04-02 10:52:00,39.0,23.0,-100.00,North,359,5.0,11.0,53,0.00,,,0.00,275.000000,,2013-04-02 14:52:00,
2013-04-02 11:02:00,39.0,23.0,-100.00,North,359,5.0,11.0,53,0.00,,,0.00,275.000000,,2013-04-02 15:02:00,
2013-04-02 11:33:00,42.0,22.0,-100.00,North,4,7.0,12.0,44,0.00,,,0.00,478.000000,,2013-04-02 15:33:00,
2013-04-02 11:43:00,42.0,22.0,-100.00,North,4,7.0,12.0,44,0.00,,,0.00,478.000000,,2013-04-02 15:43:00,
2013-04-02 11:58:00,42.0,22.0,-100.00,North,4,7.0,12.0,44,0.00,,,0.00,478.000000,,2013-04-02 15:58:00,
2013-04-02 12:04:00,42.0,22.0,-100.00,North,4,7.0,12.0,44,0.00,,,0.00,478.000000,,2013-04-02 16:04:00,
2013-04-02 12:05:00,46.0,24.0,-100.00,North,11,5.0,10.0,42,0.00,,,-99.99,495.000000,,2013-04-02 16:05:00,
2013-04-02 12:39:00,46.0,24.0,-100.00,North,11,5.0,10.0,42,0.00,,,-99.99,495.000000,,2013-04-02 16:39:00,
2013-04-02 12:54:00,46.0,24.0,-100.00,North,11,5.0,10.0,42,0.00,,,-99.99,495.000000,,2013-04-02 16:54:00,
2013-04-02 13:35:00,48.0,19.0,-100.00,North,6,6.0,15.0,31,0.00,,,0.00,858.000000,,2013-04-02 17:35:00,
2013-04-02 13:44:00,48.0,19.0,-100.00,North,6,6.0,15.0,31,0.00,,,0.00,858.000000,,2013-04-02 17:44:00,
2013-04-02 13:57:00,48.0,19.0,-100.00,North,6,6.0,15.0,31,0.00,,,0.00,858.000000,,2013-04-02 17:57:00,
2013-04-02 14:04:00,48.0,19.0,-100.00,North,6,6.0,15.0,31,0.00,,,0.00,858.000000,,2013-04-02 18:04:00,
2013-04-02 14:35:00,50.0,19.0,-100.00,NNW,327,5.0,13.0,29,0.00,,,0.00,838.000000,,2013-04-02 18:35:00,
2013-04-02 14:43:00,50.0,19.0,-100.00,NNW,327,5.0,13.0,29,0.00,,,0.00,838.000000,,2013-04-02 18:43:00,
2013-04-02 14:57:00,50.0,19.0,-100.00,NNW,327,5.0,13.0,29,0.00,,,0.00,838.000000,,2013-04-02 18:57:00,
2013-04-02 15:03:00,50.0,19.0,-100.00,NNW,327,5.0,13.0,29,0.00,,,0.00,838.000000,,2013-04-02 19:03:00,
2013-04-02 15:34:00,51.0,21.0,-100.00,North,350,5.0,11.0,30,0.00,,,0.00,670.000000,,2013-04-02 19:34:00,
2013-04-02 15:47:00,51.0,21.0,-100.00,North,350,5.0,11.0,30,0.00,,,0.00,670.000000,,2013-04-02 19:47:00,
2013-04-02 15:57:00,51.0,21.0,-100.00,North,350,5.0,11.0,30,0.00,,,0.00,670.000000,,2013-04-02 19:57:00,
2013-04-02 16:03:00,51.0,21.0,-100.00,North,350,5.0,11.0,30,0.00,,,0.00,670.000000,,2013-04-02 20:03:00,
2013-04-02 16:34:00,54.0,21.0,-100.00,NNW,339,6.0,14.0,27,0.00,,,0.00,975.000000,,2013-04-02 20:34:00,
2013-04-02 16:44:00,54.0,21.0,-100.00,NNW,339,6.0,14.0,27,0.00,,,0.00,975.000000,,2013-04-02 20:44:00,
2013-04-02 16:55:00,54.0,21.0,-100.00,NNW,339,6.0,14.0,27,0.00,,,0.00,975.000000,,2013-04-02 20:55:00,
2013-04-02 17:04:00,54.0,21.0,-100.00,NNW,339,6.0,14.0,27,0.00,,,0.00,975.000000,,2013-04-02 21:04:00,
2013-04-02 18:44:00,50.0,19.0,-100.00,North,356,5.0,12.0,29,-99.99,,,0.00,271.000000,,2013-04-02 22:44:00,
2013-04-02 18:54:00,50.0,19.0,-100.00,North,356,5.0,12.0,29,-99.99,,,0.00,271.000000,,2013-04-02 22:54:00,
2013-04-02 19:03:00,50.0,19.0,-100.00,North,356,5.0,12.0,29,-99.99,,,0.00,271.000000,,2013-04-02 23:03:00,
2013-04-02 19:37:00,49.0,19.0,-100.00,NNW,328,5.0,10.0,30,0.00,,,0.00,101.000000,,2013-04-02 23:37:00,
2013-04-02 19:43:00,49.0,19.0,-100.00,NNW,328,5.0,10.0,30,0.00,,,0.00,101.000000,,2013-04-02 23:43:00,
2013-04-02 19:54:00,49.0,19.0,-100.00,NNW,328,5.0,10.0,30,0.00,,,0.00,101.000000,,2013-04-02 23:54:00,
2013-04-02 20:04:00,49.0,19.0,-100.00,NNW,328,5.0,10.0,30,0.00,,,0.00,101.000000,,2013-04-03 00:04:00,
2013-04-02 20:34:00,47.0,21.0,-100.00,NW,319,2.0,7.0,35,0.00,,,0.00,39.000000,,2013-04-03 00:34:00,
2013-04-02 20:48:00,47.0,21.0,-100.00,NW,319,2.0,7.0,35,0.00,,,0.00,39.000000,,2013-04-03 00:48:00,
2013-04-02 20:57:00,47.0,21.0,-100.00,NW,319,2.0,7.0,35,0.00,,,0.00,39.000000,,2013-04-03 00:57:00,
2013-04-02 21:04:00,47.0,21.0,-100.00,NW,319,2.0,7.0,35,0.00,,,0.00,39.000000,,2013-04-03 01:04:00,
2013-04-02 21:34:00,46.0,22.0,-100.00,NNW,332,5.0,10.0,39,0.00,,,0.00,0.000000,,2013-04-03 01:34:00,
2013-04-02 21:43:00,46.0,22.0,-100.00,NNW,332,5.0,10.0,39,0.00,,,0.00,0.000000,,2013-04-03 01:43:00,
2013-04-02 21:54:00,46.0,22.0,-100.00,NNW,332,5.0,10.0,39,0.00,,,0.00,0.000000,,2013-04-03 01:54:00,
2013-04-02 22:04:00,46.0,22.0,-100.00,NNW,332,5.0,10.0,39,0.00,,,0.00,0.000000,,2013-04-03 02:04:00,
2013-04-02 22:05:00,45.0,23.0,-100.00,NNW,330,4.0,9.0,41,0.00,,,0.00,0.000000,,2013-04-03 02:05:00,
2013-04-02 22:34:00,45.0,23.0,-100.00,NNW,330,4.0,9.0,41,0.00,,,0.00,0.000000,,2013-04-03 02:34:00,
2013-04-02 22:44:00,45.0,23.0,-100.00,NNW,330,4.0,9.0,41,0.00,,,0.00,0.000000,,2013-04-03 02:44:00,
2013-04-02 22:53:00,45.0,23.0,-100.00,NNW,330,4.0,9.0,41,0.00,,,0.00,0.000000,,2013-04-03 02:53:00,
2013-04-02 23:38:00,44.0,27.0,-100.00,North,349,5.0,11.0,51,0.00,,,0.00,0.000000,,2013-04-03 03:38:00,
2013-04-02 23:44:00,44.0,27.0,-100.00,North,349,5.0,11.0,51,0.00,,,0.00,0.000000,,2013-04-03 03:44:00,
2013-04-02 23:54:00,44.0,27.0,-100.00,North,349,5.0,11.0,51,0.00,,,0.00,0.000000,,2013-04-03 03:54:00,